Location: Newark
(51.3318°N, 0.0053°E)
Time: 02:25:25
(UTC+00:00)

Envisat - Pass Details

Date: 22 January 2022
Orbit: 764 x 765 km, 98.2° (Epoch: 28 May)

Event Time Altitude Azimuth Distance (km) Brightness Sun altitude
Rises 03:27:35 0° 28° (NNE) 3,242 6.8 -40.5°
Reaches altitude 10° 03:31:04 10° 53° (NE) 2,310 6.1 -39.9°
Maximum altitude 03:33:45 14° 86° (E) 2,022 5.8 -39.6°
Drops below altitude 10° 03:36:25 10° 118° (ESE) 2,301 5.9 -39.2°
Sets 03:39:51 0° 142° (SE) 3,221 6.4 -38.6°
